Location: Bas Lanzent
(48.1360°N, 3.5871°W)
Time: 07:12:33
(UTC+00:00)

Meteor 2-10 Rocket - Pass Details

Date: 18 February 2020
Orbit: 734 x 885 km, 81.2° (Epoch: 31 March)

Event Time Altitude Azimuth Distance (km) Brightness Sun altitude
Exits shadow 05:45:11 26° 272° (W) 1,527 4.4 -15.9°
Maximum altitude 05:46:18 28° 293° (WNW) 1,450 4.4 -15.8°
Drops below altitude 10° 05:50:44 10° 351° (N) 2,310 5.9 -15.0°
Sets 05:53:23 0° 4° (N) 3,220 6.8 -14.6°
